Estación de Lontue
Ultimos registro cada 15 minutos 42
| N° | Estación | Fecha / Hora | Temperatura | Humedad | Lluvia | Velocidad | Dirección | Radiación | Presion |
| 42 | Lontue | 07-05-2026 10:15 | 9,2 | 84,9 | 0 | 1,1 | 184 | 184,4 | 1002,1 |
| 41 | Lontue | 07-05-2026 10:00 | 8,8 | 84,9 | 0 | 0,4 | 160 | 134,4 | 1002,1 |
| 40 | Lontue | 07-05-2026 09:45 | 8,5 | 87,8 | 0 | 1,1 | 170 | 93,1 | 1002,2 |
| 39 | Lontue | 07-05-2026 09:30 | 8,4 | 87,7 | 0 | 1,5 | 192 | 120,6 | 1002 |
| 38 | Lontue | 07-05-2026 09:15 | 8 | 90,5 | 0 | 1,5 | 188 | 85,6 | 1001,8 |
| 37 | Lontue | 07-05-2026 09:00 | 7,8 | 90,6 | 0 | 0,8 | 170 | 59,4 | 1001,9 |
| 36 | Lontue | 07-05-2026 08:45 | 7,7 | 90,8 | 0 | 0,4 | 142 | 34,4 | 1001,6 |
| 35 | Lontue | 07-05-2026 08:30 | 7,5 | 90,4 | 0 | 1,9 | 175 | 18,1 | 1001,6 |
| 34 | Lontue | 07-05-2026 08:15 | 7,6 | 90 | 0 | 2,7 | 180 | 10,6 | 1001,4 |
| 33 | Lontue | 07-05-2026 08:00 | 7,6 | 89,9 | 0 | 1,1 | 174 | 28,1 | 1001,1 |
| 32 | Lontue | 07-05-2026 07:45 | 7,8 | 90 | 0 | 0,8 | 175 | 6,9 | 1000,7 |
| 31 | Lontue | 07-05-2026 07:30 | 8 | 89,1 | 0 | 1,1 | 181 | 0,6 | 1000,8 |
| 30 | Lontue | 07-05-2026 07:15 | 8,2 | 88,6 | 0 | 0,4 | 191 | 0,6 | 1000,6 |
| 29 | Lontue | 07-05-2026 07:00 | 8,2 | 88,4 | 0 | 0,8 | 177 | 0,6 | 1000,5 |
| 28 | Lontue | 07-05-2026 06:45 | 8,3 | 88,3 | 0 | 1,1 | 178 | 0,6 | 1000,5 |
| 27 | Lontue | 07-05-2026 06:30 | 8,3 | 88,2 | 0 | 1,1 | 170 | 0,6 | 1000,5 |
| 26 | Lontue | 07-05-2026 06:15 | 8,4 | 88,2 | 0 | 1,9 | 170 | 0,6 | 1000,3 |
| 25 | Lontue | 07-05-2026 06:00 | 8,3 | 87,7 | 0 | 2,3 | 178 | 0,6 | 1000,1 |
| 24 | Lontue | 07-05-2026 05:45 | 8,7 | 87,2 | 0 | 1,1 | 177 | 0,6 | 999,9 |
| 23 | Lontue | 07-05-2026 05:30 | 8,9 | 86,8 | 0 | 1,9 | 171 | 0,6 | 999,7 |
| 22 | Lontue | 07-05-2026 05:15 | 9 | 86,7 | 0 | 1,1 | 150 | 0,6 | 999,8 |
| 21 | Lontue | 07-05-2026 05:00 | 9,1 | 86,8 | 0 | 1,1 | 167 | 0,6 | 999,7 |
| 20 | Lontue | 07-05-2026 04:45 | 9 | 86,6 | 0 | 1,9 | 173 | 0,6 | 999,3 |
| 19 | Lontue | 07-05-2026 04:30 | 9,1 | 86,5 | 0 | 1,9 | 174 | 0,6 | 999 |
| 18 | Lontue | 07-05-2026 04:15 | 9,1 | 86,6 | 0 | 0 | 145 | 0,6 | 998,9 |
| 17 | Lontue | 07-05-2026 04:00 | 9 | 86,8 | 0 | 1,1 | 167 | 0,6 | 999 |
| 16 | Lontue | 07-05-2026 03:45 | 9,2 | 86,2 | 0 | 1,1 | 167 | 0,6 | 998,8 |
| 15 | Lontue | 07-05-2026 03:30 | 9,3 | 86,4 | 0 | 0,8 | 178 | 0,6 | 998,9 |
| 14 | Lontue | 07-05-2026 03:15 | 9,4 | 85,9 | 0 | 0,4 | 153 | 0,6 | 998,8 |
| 13 | Lontue | 07-05-2026 03:00 | 9,5 | 85,4 | 0 | 1,5 | 150 | 0,6 | 998,9 |
| 12 | Lontue | 07-05-2026 02:45 | 9,7 | 84,2 | 0 | 3 | 194 | 0,6 | 998,9 |
| 11 | Lontue | 07-05-2026 02:30 | 9,5 | 85,7 | 0 | 2,3 | 195 | 0,6 | 998,5 |
| 10 | Lontue | 07-05-2026 02:15 | 9,5 | 86,2 | 0 | 1,9 | 181 | 0,6 | 998,6 |
| 9 | Lontue | 07-05-2026 02:00 | 9,6 | 85,7 | 0 | 1,9 | 173 | 0,6 | 998,5 |
| 8 | Lontue | 07-05-2026 01:45 | 9,6 | 86,7 | 0 | 0,8 | 166 | 0,6 | 998,4 |
| 7 | Lontue | 07-05-2026 01:30 | 9,6 | 87 | 0 | 0,8 | 170 | 0,6 | 998,2 |
| 6 | Lontue | 07-05-2026 01:15 | 9,8 | 86,6 | 0 | 0,4 | 166 | 0,6 | 998 |
| 5 | Lontue | 07-05-2026 01:00 | 9,8 | 86,2 | 0 | 0 | 185 | 0,6 | 998 |
| 4 | Lontue | 07-05-2026 00:45 | 10 | 85,5 | 0 | 0,4 | 177 | 0,6 | 997,9 |
| 3 | Lontue | 07-05-2026 00:30 | 10,1 | 85,4 | 0 | 0,8 | 181 | 0,6 | 998,1 |
| 2 | Lontue | 07-05-2026 00:15 | 10,1 | 85,5 | 0 | 0,4 | 163 | 0,6 | 997,9 |
| 1 | Lontue | 07-05-2026 00:00 | 10,2 | 84,9 | 0 | 0,8 | 174 | 0,6 | 997,6 |